TimeCST,TemperatureF,Dew PointF,Humidity,Sea Level PressureIn,VisibilityMPH,Wind Direction,Wind SpeedMPH,Gust SpeedMPH,PrecipitationIn,Events,Conditions,WindDirDegrees,DateUTC
1:56 AM,33.1,27.0,78,30.06,9.0,East,10.4,-,N/A,,Scattered Clouds,100,2012-12-09 07:56:00
2:56 AM,35.1,28.0,76,30.04,10.0,East,12.7,-,N/A,,Overcast,90,2012-12-09 08:56:00
3:56 AM,36.0,28.9,76,30.01,10.0,East,12.7,-,N/A,,Overcast,100,2012-12-09 09:56:00
4:49 AM,35.6,28.4,75,30.01,10.0,East,12.7,-,N/A,,Overcast,100,2012-12-09 10:49:00
4:56 AM,36.0,28.9,76,30.02,10.0,East,12.7,-,N/A,,Overcast,100,2012-12-09 10:56:00
5:45 AM,35.6,28.4,75,30.01,1.8,East,12.7,-,0.00,Snow,Light Snow,80,2012-12-09 11:45:00
5:56 AM,34.0,30.0,85,30.01,1.2,East,12.7,-,0.00,Snow,Light Snow,80,2012-12-09 11:56:00
6:43 AM,33.8,30.2,87,30.00,1.5,ENE,8.1,-,0.00,Snow,Light Snow,70,2012-12-09 12:43:00
6:56 AM,34.0,30.9,89,30.01,1.5,ENE,8.1,-,0.00,Snow,Light Snow,70,2012-12-09 12:56:00
7:32 AM,33.8,30.2,87,29.99,0.8,East,10.4,-,0.01,Snow,Light Snow,80,2012-12-09 13:32:00
7:36 AM,33.8,30.2,87,29.99,1.0,East,8.1,-,0.01,Snow,Light Snow,80,2012-12-09 13:36:00
7:43 AM,33.8,30.2,87,29.99,1.0,East,11.5,-,0.02,Snow,Light Snow,80,2012-12-09 13:43:00
7:49 AM,33.8,30.2,87,29.98,0.5,East,12.7,-,0.02,Fog-Snow,Snow,80,2012-12-09 13:49:00
7:56 AM,33.1,30.9,92,29.99,0.2,East,11.5,-,0.02,Fog-Snow,Snow,80,2012-12-09 13:56:00
8:30 AM,33.8,30.2,87,29.96,0.5,East,10.4,-,0.02,Fog-Snow,Snow,90,2012-12-09 14:30:00
8:37 AM,33.8,30.2,87,29.95,0.5,East,10.4,-,0.02,Fog-Snow,Snow,90,2012-12-09 14:37:00
8:56 AM,33.1,30.9,92,29.96,0.8,East,11.5,-,0.02,Snow,Light Snow,90,2012-12-09 14:56:00
9:05 AM,33.8,30.2,87,29.95,0.8,East,10.4,-,0.01,Snow,Light Snow,90,2012-12-09 15:05:00
9:45 AM,33.8,30.2,87,29.94,1.0,East,10.4,-,0.01,Snow,Light Snow,80,2012-12-09 15:45:00
9:56 AM,34.0,30.9,89,29.95,1.0,East,9.2,-,0.01,Snow,Light Snow,80,2012-12-09 15:56:00
10:07 AM,33.8,30.2,87,29.94,0.8,East,9.2,-,0.01,Snow,Light Snow,80,2012-12-09 16:07:00
10:56 AM,33.1,30.9,92,29.91,0.5,ENE,6.9,-,0.04,Fog-Snow,Snow,70,2012-12-09 16:56:00
11:38 AM,33.8,30.2,87,29.88,0.5,ENE,5.8,-,0.03,Fog-Snow,Snow,70,2012-12-09 17:38:00
11:56 AM,34.0,30.9,89,29.88,0.5,East,6.9,-,0.05,Fog-Snow,Snow,90,2012-12-09 17:56:00
12:48 PM,33.8,30.2,87,29.82,0.8,ENE,8.1,-,0.04,Snow,Light Snow,70,2012-12-09 18:48:00
12:56 PM,34.0,30.9,89,29.83,0.8,East,8.1,-,0.04,Snow,Light Snow,80,2012-12-09 18:56:00
1:04 PM,33.8,30.2,87,29.82,1.0,East,6.9,-,0.00,Snow,Light Snow,80,2012-12-09 19:04:00
1:25 PM,33.8,30.2,87,29.81,2.5,East,6.9,-,0.00,Snow,Light Snow,80,2012-12-09 19:25:00
1:32 PM,33.8,30.2,87,29.81,4.0,East,10.4,-,0.00,Snow,Light Snow,80,2012-12-09 19:32:00
1:56 PM,34.0,30.9,89,29.80,3.0,East,10.4,-,0.01,Snow,Light Snow,80,2012-12-09 19:56:00
2:06 PM,33.8,30.2,87,29.78,2.0,East,11.5,-,0.00,Snow,Light Snow,80,2012-12-09 20:06:00
2:21 PM,33.8,30.2,87,29.79,1.5,East,9.2,-,0.01,Snow,Light Snow,90,2012-12-09 20:21:00
2:32 PM,33.8,30.2,87,29.78,2.5,East,11.5,-,0.01,Snow,Light Snow,90,2012-12-09 20:32:00
2:56 PM,34.0,32.0,92,29.79,2.5,East,5.8,-,0.01,Snow,Light Snow,90,2012-12-09 20:56:00
3:12 PM,33.8,30.2,87,29.78,3.0,East,8.1,-,0.00,Snow,Light Snow,80,2012-12-09 21:12:00
3:56 PM,35.1,30.9,85,29.78,8.0,East,6.9,-,0.00,,Overcast,90,2012-12-09 21:56:00
4:56 PM,34.0,30.9,89,29.78,3.0,Calm,Calm,-,N/A,,Overcast,0,2012-12-09 22:56:00
5:02 PM,33.8,30.2,87,29.77,2.5,Calm,Calm,-,N/A,,Overcast,0,2012-12-09 23:02:00
5:14 PM,33.8,32.0,93,29.77,1.5,Calm,Calm,-,0.01,Snow,Light Snow,0,2012-12-09 23:14:00
5:28 PM,33.8,32.0,93,29.77,1.5,Calm,Calm,-,0.01,Snow,Light Snow,0,2012-12-09 23:28:00
5:36 PM,33.8,30.2,87,29.77,1.8,Calm,Calm,-,0.01,Snow,Light Snow,0,2012-12-09 23:36:00
5:56 PM,33.1,32.0,96,29.77,1.8,Calm,Calm,-,0.01,Snow,Light Snow,0,2012-12-09 23:56:00
6:03 PM,33.8,32.0,93,29.76,1.8,Calm,Calm,-,0.00,Snow,Light Snow,0,2012-12-10 00:03:00
6:16 PM,33.8,30.2,87,29.77,2.0,Calm,Calm,-,0.01,Snow,Light Snow,0,2012-12-10 00:16:00
6:54 PM,33.8,32.0,93,29.74,3.0,Calm,Calm,-,0.01,,Overcast,0,2012-12-10 00:54:00
6:56 PM,33.1,32.0,96,29.75,3.0,Calm,Calm,-,0.01,,Overcast,0,2012-12-10 00:56:00
7:09 PM,33.8,32.0,93,29.74,2.0,Calm,Calm,-,0.00,Snow,Light Snow,0,2012-12-10 01:09:00
7:44 PM,33.8,32.0,93,29.75,3.0,West,5.8,-,0.00,,Overcast,270,2012-12-10 01:44:00
7:56 PM,33.1,32.0,96,29.75,2.5,West,3.5,-,0.00,Snow,Light Snow,280,2012-12-10 01:56:00
8:07 PM,33.8,32.0,93,29.73,1.5,Calm,Calm,-,0.00,Snow,Light Snow,0,2012-12-10 02:07:00
8:29 PM,33.8,30.2,87,29.73,2.5,Calm,Calm,-,0.00,Snow,Light Snow,0,2012-12-10 02:29:00
8:42 PM,33.8,32.0,93,29.73,3.0,Calm,Calm,-,0.00,,Overcast,0,2012-12-10 02:42:00
8:56 PM,33.1,32.0,96,29.73,3.0,Calm,Calm,-,0.00,,Overcast,0,2012-12-10 02:56:00
9:12 PM,33.8,30.2,87,29.73,3.0,WSW,3.5,-,N/A,,Overcast,250,2012-12-10 03:12:00
9:39 PM,33.8,30.2,87,29.72,2.5,WSW,3.5,-,N/A,,Overcast,250,2012-12-10 03:39:00
9:56 PM,33.1,30.9,92,29.73,2.5,WSW,3.5,-,N/A,,Overcast,240,2012-12-10 03:56:00
10:11 PM,33.8,30.2,87,29.72,2.5,West,3.5,-,N/A,,Overcast,270,2012-12-10 04:11:00
10:26 PM,33.8,30.2,87,29.72,1.8,West,4.6,-,0.00,Snow,Light Snow,270,2012-12-10 04:26:00
10:43 PM,33.8,30.2,87,29.73,1.8,West,3.5,-,0.00,Snow,Light Snow,260,2012-12-10 04:43:00
10:49 PM,33.8,30.2,87,29.73,2.0,West,3.5,-,0.00,Snow,Light Snow,260,2012-12-10 04:49:00
10:56 PM,33.1,30.9,92,29.74,2.5,West,5.8,-,0.00,,Overcast,270,2012-12-10 04:56:00
11:13 PM,33.8,30.2,87,29.72,1.5,West,4.6,-,0.00,Snow,Light Snow,270,2012-12-10 05:13:00
11:35 PM,33.8,30.2,87,29.72,2.0,West,3.5,-,0.00,,Overcast,260,2012-12-10 05:35:00
11:56 PM,33.1,30.9,92,29.73,4.0,West,6.9,-,0.00,,Overcast,280,2012-12-10 05:56:00